Union Aéronautique de la Côte d'Azur

Union Aéronautique de la Côte d'Azur
UACA
Approuvé A.T.O. EASA – N°FR.ATO.0108

UNION des aéroclubs
Cannes “Ailes d’Azur”, Nice “Côte d’Azur”, Grasse “St Exupery”, ACCA “Francis Séverac”

Un cache-pitot se trouve à bord de chaque avion. Pensez à le mettre en place à la fin de chaque vol !

Avant de quitter l'avion, vérifiez que vous n'emportez pas la checklist

Un vol ne s'entreprend qu'avec un pare-brise parfaitement propre, il en va de votre sécurité, et de celle des autres

Après chaque vol, merci de mettre en place les pares-soleil!


Météo à Cannes:
METAR
LFMD 180200Z AUTO VRB02KT 9999 FEW100 13/12 Q1018 =
LFMD 180200Z 1803/1903 VRB03KT 9999 BKN030 TEMPO 1804/1805 SHRA FEW030TCU BECMG 1810/1812 17010KT BECMG 1816/1818 VRB02KT TEMPO 1819/1903 SHRA FEW030CB PROB30 TEMPO 1819/1903 TSRA SCT030CB

TAF
LFMD 180200Z 1803/1903 VRB03KT 9999 BKN030 TEMPO 1804/1805 SHRA FEW030TCU BECMG 1810/1812 17010KT BECMG 1816/1818 VRB02KT TEMPO 1819/1903 SHRA FEW030CB PROB30 TEMPO 1819/1903 TSRA SCT030CB =

SR / SS: 05:52 / 16:43 UTC (LFMD 2019-10-18)